| time (UTC) | temp F | wind direction | speed knots | gust knots | rain 1hr in | rain 24hr in | rain mn in | humidity % | barometer mb |
| 20260508014557 | 41 | 0 | 0.0 | 0.0 | 0.00 | 0.00 | 0.00 | 90 | 1016.0 |
| 20260508014057 | 41 | 0 | 0.0 | 0.0 | 0.00 | 0.00 | 0.00 | 90 | 1016.1 |
| 20260508013600 | 41 | 0 | 0.0 | 0.0 | 0.00 | 0.00 | 0.00 | 90 | 1016.0 |
| 20260508013058 | 41 | 0 | 0.0 | 0.0 | 0.00 | 0.00 | 0.00 | 90 | 1016.2 |
| 20260508012556 | 41 | 0 | 0.0 | 0.0 | 0.00 | 0.00 | 0.00 | 90 | 1016.2 |
| 20260508012057 | 41 | 0 | 0.0 | 0.0 | 0.00 | 0.00 | 0.00 | 90 | 1016.2 |
| 20260508011557 | 41 | 0 | 0.0 | 0.0 | 0.00 | 0.00 | 0.00 | 89 | 1016.2 |
| 20260508011056 | 41 | 0 | 0.0 | 0.0 | 0.00 | 0.00 | 0.00 | 89 | 1016.2 |
| 20260508010556 | 41 | 0 | 0.0 | 0.0 | 0.00 | 0.00 | 0.00 | 89 | 1016.1 |
| 20260508010057 | 41 | 0 | 0.0 | 0.0 | 0.00 | 0.00 | 0.00 | 89 | 1016.2 |
| 20260508005558 | 41 | 0 | 0.0 | 0.0 | 0.00 | 0.00 | 0.00 | 89 | 1016.2 |
| 20260508005101 | 41 | 0 | 0.0 | 0.0 | 0.00 | 0.00 | 0.00 | 88 | 1016.2 |
| 20260508004559 | 41 | 0 | 0.0 | 0.0 | 0.00 | 0.00 | 0.00 | 88 | 1016.2 |
| 20260508004058 | 41 | 0 | 0.0 | 0.0 | 0.00 | 0.00 | 0.00 | 88 | 1016.3 |
| 20260508003600 | 41 | 0 | 0.0 | 0.0 | 0.00 | 0.00 | 0.00 | 88 | 1016.3 |
| 20260508003058 | 41 | 0 | 0.0 | 0.0 | 0.00 | 0.00 | 0.00 | 88 | 1016.5 |
| 20260508002558 | 41 | 0 | 0.0 | 0.0 | 0.00 | 0.00 | 0.00 | 88 | 1016.5 |
| 20260508002058 | 42 | 0 | 0.0 | 0.0 | 0.00 | 0.00 | 0.00 | 87 | 1016.4 |
| 20260508001556 | 42 | 0 | 0.0 | 0.0 | 0.00 | 0.00 | 0.00 | 87 | 1016.5 |
| 20260508001101 | 42 | 0 | 0.0 | 0.0 | 0.00 | 0.00 | 0.00 | 87 | 1016.4 |
| 20260508000602 | 42 | 0 | 0.0 | 0.0 | 0.00 | 0.00 | 0.00 | 87 | 1016.4 |
| 20260508000101 | 42 | 0 | 0.0 | 0.0 | 0.00 | 0.00 | 0.00 | 86 | 1016.3 |
| 20260507235558 | 42 | 0 | 0.0 | 0.0 | 0.00 | 0.00 | 0.00 | 86 | 1016.4 |
| 20260507235058 | 42 | 0 | 0.0 | 0.0 | 0.00 | 0.00 | 0.00 | 86 | 1016.4 |
| 20260507234602 | 42 | 0 | 0.0 | 0.0 | 0.00 | 0.00 | 0.00 | 86 | 1016.5 |
| 20260507234105 | 42 | 0 | 0.0 | 0.0 | 0.00 | 0.00 | 0.00 | 85 | 1016.4 |
| 20260507233601 | 43 | 0 | 0.0 | 0.0 | 0.00 | 0.00 | 0.00 | 85 | 1016.6 |
| 20260507233117 | 43 | 0 | 0.0 | 0.0 | 0.00 | 0.00 | 0.00 | 85 | 1016.6 |
| 20260507232600 | 43 | 0 | 0.0 | 0.0 | 0.00 | 0.00 | 0.00 | 85 | 1016.6 |
| 20260507232057 | 43 | 0 | 0.0 | 0.0 | 0.00 | 0.00 | 0.00 | 84 | 1016.6 |
| 20260507231600 | 43 | 0 | 0.0 | 0.0 | 0.00 | 0.00 | 0.00 | 84 | 1016.5 |
| 20260507231058 | 44 | 0 | 0.0 | 0.0 | 0.00 | 0.00 | 0.00 | 84 | 1016.5 |
| 20260507230559 | 44 | 0 | 0.0 | 0.0 | 0.00 | 0.00 | 0.00 | 83 | 1016.6 |
| 20260507230058 | 44 | 0 | 0.0 | 0.0 | 0.00 | 0.00 | 0.00 | 83 | 1016.7 |
| 20260507225558 | 44 | 0 | 0.0 | 0.0 | 0.00 | 0.00 | 0.00 | 83 | 1016.7 |
| 20260507225058 | 45 | 0 | 0.0 | 0.9 | 0.00 | 0.00 | 0.00 | 82 | 1016.7 |
| 20260507224559 | 45 | 0 | 0.0 | 0.9 | 0.00 | 0.00 | 0.00 | 82 | 1016.7 |
| 20260507224058 | 45 | 0 | 0.0 | 0.0 | 0.00 | 0.00 | 0.00 | 81 | 1016.8 |
| 20260507223600 | 45 | 0 | 0.0 | 0.0 | 0.00 | 0.00 | 0.00 | 81 | 1016.8 |
| 20260507223113 | 45 | 0 | 0.0 | 0.0 | 0.00 | 0.00 | 0.00 | 80 | 1016.7 |
| 20260507222558 | 46 | 0 | 0.0 | 0.9 | 0.00 | 0.00 | 0.00 | 80 | 1016.7 |
| 20260507222058 | 46 | 0 | 0.0 | 0.9 | 0.00 | 0.00 | 0.00 | 80 | 1016.8 |
| 20260507221558 | 46 | 0 | 0.0 | 0.9 | 0.00 | 0.00 | 0.00 | 79 | 1016.7 |
| 20260507221059 | 46 | 0 | 0.0 | 1.7 | 0.00 | 0.00 | 0.00 | 79 | 1016.6 |
| 20260507220557 | 46 | 0 | 0.0 | 1.7 | 0.00 | 0.00 | 0.00 | 79 | 1016.4 |
| 20260507220058 | 47 | 0 | 0.0 | 1.7 | 0.00 | 0.00 | 0.00 | 78 | 1016.4 |
| 20260507215555 | 47 | 153 | 0.0 | 1.7 | 0.00 | 0.00 | 0.00 | 78 | 1016.6 |
| 20260507215059 | 47 | 153 | 0.0 | 0.9 | 0.00 | 0.00 | 0.00 | 77 | 1016.6 |
| 20260507214557 | 48 | 0 | 0.0 | 0.0 | 0.00 | 0.00 | 0.00 | 77 | 1016.8 |
| 20260507214058 | 48 | 0 | 0.0 | 0.0 | 0.00 | 0.00 | 0.00 | 76 | 1016.9 |
| 20260507213557 | 48 | 0 | 0.0 | 0.0 | 0.00 | 0.00 | 0.00 | 76 | 1016.8 |
| 20260507213058 | 48 | 0 | 0.0 | 0.0 | 0.00 | 0.00 | 0.00 | 75 | 1016.9 |
| 20260507212558 | 49 | 0 | 0.0 | 0.0 | 0.00 | 0.00 | 0.00 | 75 | 1016.8 |
| 20260507212058 | 49 | 0 | 0.0 | 0.0 | 0.00 | 0.00 | 0.00 | 74 | 1016.8 |
| 20260507211603 | 49 | 0 | 0.0 | 0.0 | 0.00 | 0.00 | 0.00 | 72 | 1016.8 |
| 20260507211058 | 49 | 0 | 0.0 | 0.0 | 0.00 | 0.00 | 0.00 | 72 | 1016.8 |
| 20260507210558 | 50 | 0 | 0.0 | 0.0 | 0.00 | 0.00 | 0.00 | 71 | 1016.7 |
| 20260507210113 | 50 | 0 | 0.0 | 0.9 | 0.00 | 0.00 | 0.00 | 71 | 1016.8 |
| 20260507205558 | 50 | 0 | 0.0 | 0.9 | 0.00 | 0.00 | 0.00 | 71 | 1016.7 |
| 20260507205058 | 50 | 0 | 0.0 | 0.0 | 0.00 | 0.00 | 0.00 | 70 | 1016.6 |
| 20260507204555 | 51 | 0 | 0.0 | 1.7 | 0.00 | 0.00 | 0.00 | 69 | 1016.6 |
| 20260507204102 | 51 | 0 | 0.0 | 1.7 | 0.00 | 0.00 | 0.00 | 69 | 1016.5 |
| 20260507203555 | 51 | 0 | 0.0 | 0.9 | 0.00 | 0.00 | 0.00 | 69 | 1016.6 |
| 20260507203059 | 52 | 0 | 0.0 | 0.9 | 0.00 | 0.00 | 0.00 | 68 | 1016.5 |
| 20260507202601 | 52 | 0 | 0.0 | 0.0 | 0.00 | 0.00 | 0.00 | 68 | 1016.5 |
| 20260507202058 | 52 | 0 | 0.0 | 0.0 | 0.00 | 0.00 | 0.00 | 67 | 1016.4 |
| 20260507201600 | 52 | 0 | 0.0 | 0.0 | 0.00 | 0.00 | 0.00 | 66 | 1016.3 |
| 20260507201058 | 53 | 0 | 0.0 | 0.0 | 0.00 | 0.00 | 0.00 | 66 | 1016.3 |
| 20260507200602 | 53 | 0 | 0.0 | 1.7 | 0.00 | 0.00 | 0.00 | 66 | 1016.2 |
| 20260507200105 | 53 | 0 | 0.0 | 1.7 | 0.00 | 0.00 | 0.00 | 67 | 1016.0 |
| 20260507195559 | 53 | 0 | 0.0 | 4.3 | 0.00 | 0.00 | 0.00 | 67 | 1016.0 |
| 20260507195058 | 54 | 0 | 0.0 | 4.3 | 0.00 | 0.00 | 0.00 | 67 | 1015.8 |
| 20260507194602 | 54 | 153 | 0.9 | 4.3 | 0.00 | 0.00 | 0.00 | 66 | 1015.8 |
| 20260507194058 | 54 | 153 | 0.0 | 3.5 | 0.00 | 0.00 | 0.00 | 66 | 1015.8 |
| 20260507193559 | 54 | 0 | 0.0 | 3.5 | 0.00 | 0.00 | 0.00 | 66 | 1015.7 |
| 20260507193055 | 54 | 0 | 0.0 | 3.5 | 0.00 | 0.00 | 0.00 | 65 | 1015.7 |
| 20260507192557 | 55 | 152 | 0.0 | 3.5 | 0.00 | 0.00 | 0.00 | 65 | 1015.7 |
| 20260507192056 | 55 | 0 | 0.0 | 4.3 | 0.00 | 0.00 | 0.00 | 65 | 1015.7 |
| 20260507191600 | 55 | 0 | 0.0 | 5.2 | 0.00 | 0.00 | 0.00 | 65 | 1015.7 |
| 20260507191057 | 55 | 152 | 0.9 | 5.2 | 0.00 | 0.00 | 0.00 | 65 | 1015.6 |
| 20260507190558 | 55 | 152 | 0.9 | 5.2 | 0.00 | 0.00 | 0.00 | 65 | 1015.5 |
| 20260507190113 | 55 | 0 | 0.0 | 4.3 | 0.00 | 0.00 | 0.00 | 65 | 1015.6 |
| 20260507185557 | 55 | 0 | 0.0 | 6.1 | 0.00 | 0.00 | 0.00 | 65 | 1015.5 |
| 20260507185058 | 55 | 0 | 0.9 | 6.1 | 0.00 | 0.00 | 0.00 | 65 | 1015.5 |
| 20260507184558 | 56 | 157 | 1.7 | 5.2 | 0.00 | 0.00 | 0.00 | 65 | 1015.6 |
| 20260507184059 | 56 | 0 | 1.7 | 6.1 | 0.00 | 0.00 | 0.00 | 65 | 1015.5 |
| 20260507183558 | 56 | 157 | 1.7 | 8.7 | 0.00 | 0.00 | 0.00 | 65 | 1015.5 |
| 20260507183114 | 56 | 154 | 3.5 | 8.7 | 0.00 | 0.00 | 0.00 | 65 | 1015.5 |
| 20260507182556 | 56 | 155 | 1.7 | 6.1 | 0.00 | 0.00 | 0.00 | 65 | 1015.5 |
| 20260507182056 | 56 | 154 | 1.7 | 5.2 | 0.00 | 0.00 | 0.00 | 65 | 1015.4 |
| 20260507181601 | 56 | 170 | 0.9 | 6.1 | 0.00 | 0.00 | 0.00 | 65 | 1015.4 |
| 20260507181056 | 56 | 0 | 0.9 | 6.1 | 0.00 | 0.00 | 0.00 | 65 | 1015.4 |
| 20260507180556 | 56 | 199 | 0.9 | 7.8 | 0.00 | 0.00 | 0.00 | 65 | 1015.4 |
| 20260507180059 | 57 | 195 | 3.5 | 7.8 | 0.00 | 0.00 | 0.00 | 64 | 1015.3 |
| 20260507175556 | 57 | 209 | 1.7 | 7.0 | 0.00 | 0.00 | 0.00 | 64 | 1015.3 |
| 20260507175056 | 57 | 212 | 1.7 | 6.1 | 0.00 | 0.00 | 0.00 | 64 | 1015.3 |
| 20260507174603 | 57 | 138 | 1.7 | 6.1 | 0.00 | 0.00 | 0.00 | 64 | 1015.2 |
| 20260507174057 | 57 | 188 | 0.9 | 6.1 | 0.00 | 0.00 | 0.00 | 63 | 1015.2 |
| 20260507173556 | 57 | 203 | 0.9 | 6.1 | 0.00 | 0.00 | 0.00 | 62 | 1015.2 |
| 20260507173115 | 57 | 211 | 1.7 | 6.1 | 0.00 | 0.00 | 0.00 | 61 | 1015.3 |
| 20260507172557 | 58 | 161 | 1.7 | 7.0 | 0.00 | 0.00 | 0.00 | 60 | 1015.2 |
| 20260507172058 | 58 | 153 | 1.7 | 7.0 | 0.00 | 0.00 | 0.00 | 57 | 1015.2 |
| 20260507171559 | 58 | 0 | 0.9 | 6.1 | 0.00 | 0.00 | 0.00 | 57 | 1015.2 |
| 20260507171056 | 58 | 0 | 0.9 | 6.1 | 0.00 | 0.00 | 0.00 | 57 | 1015.2 |
| 20260507170556 | 58 | 140 | 1.7 | 6.1 | 0.00 | 0.00 | 0.00 | 57 | 1015.3 |
| 20260507170100 | 58 | 0 | 0.9 | 5.2 | 0.00 | 0.00 | 0.00 | 56 | 1015.3 |
| 20260507165556 | 58 | 0 | 0.9 | 6.1 | 0.00 | 0.00 | 0.00 | 57 | 1015.2 |
| 20260507165056 | 58 | 0 | 0.9 | 7.0 | 0.00 | 0.00 | 0.00 | 57 | 1015.3 |
| 20260507164633 | 58 | 0 | 2.6 | 7.0 | 0.00 | 0.00 | 0.00 | 56 | 1015.1 |
| 20260507164057 | 58 | 132 | 1.7 | 7.0 | 0.00 | 0.00 | 0.00 | 57 | 1015.2 |
| 20260507163556 | 58 | 135 | 1.7 | 7.0 | 0.00 | 0.00 | 0.00 | 58 | 1015.2 |
| 20260507163101 | 58 | 132 | 0.9 | 6.1 | 0.00 | 0.00 | 0.00 | 58 | 1015.1 |
| 20260507162555 | 58 | 132 | 1.7 | 7.0 | 0.00 | 0.00 | 0.00 | 58 | 1015.3 |
| 20260507162056 | 58 | 161 | 1.7 | 7.0 | 0.00 | 0.00 | 0.00 | 58 | 1015.2 |
| 20260507161603 | 58 | 0 | 1.7 | 7.0 | 0.00 | 0.00 | 0.00 | 59 | 1015.3 |
| 20260507161059 | 58 | 139 | 0.9 | 4.3 | 0.00 | 0.00 | 0.00 | 58 | 1015.4 |
| 20260507160557 | 58 | 140 | 1.7 | 6.1 | 0.00 | 0.00 | 0.00 | 60 | 1015.3 |
| 20260507160057 | 58 | 161 | 0.9 | 6.1 | 0.00 | 0.00 | 0.00 | 59 | 1015.4 |
| 20260507155558 | 58 | 156 | 1.7 | 8.7 | 0.00 | 0.00 | 0.00 | 59 | 1015.4 |
| 20260507155056 | 58 | 143 | 1.7 | 8.7 | 0.00 | 0.00 | 0.00 | 58 | 1015.4 |
| 20260507154600 | 59 | 157 | 0.9 | 6.1 | 0.00 | 0.00 | 0.00 | 57 | 1015.4 |
| 20260507154056 | 59 | 182 | 1.7 | 7.8 | 0.00 | 0.00 | 0.00 | 58 | 1015.4 |
| 20260507153557 | 59 | 165 | 1.7 | 7.8 | 0.00 | 0.00 | 0.00 | 58 | 1015.4 |
| 20260507153059 | 59 | 160 | 2.6 | 7.8 | 0.00 | 0.00 | 0.00 | 58 | 1015.5 |
| 20260507152559 | 59 | 179 | 2.6 | 7.8 | 0.00 | 0.00 | 0.00 | 58 | 1015.4 |
| 20260507152059 | 60 | 203 | 2.6 | 10.4 | 0.00 | 0.00 | 0.00 | 59 | 1015.4 |
| 20260507151556 | 60 | 159 | 4.3 | 10.4 | 0.00 | 0.00 | 0.00 | 58 | 1015.4 |
| 20260507151056 | 60 | 155 | 2.6 | 8.7 | 0.00 | 0.00 | 0.00 | 58 | 1015.4 |
| 20260507150556 | 60 | 153 | 2.6 | 8.7 | 0.00 | 0.00 | 0.00 | 57 | 1015.3 |
| 20260507150059 | 61 | 144 | 2.6 | 7.0 | 0.00 | 0.00 | 0.00 | 56 | 1015.3 |
| 20260507145559 | 61 | 140 | 2.6 | 7.0 | 0.00 | 0.00 | 0.00 | 53 | 1015.3 |
| 20260507145059 | 61 | 157 | 2.6 | 7.0 | 0.00 | 0.00 | 0.00 | 51 | 1015.3 |
| 20260507144600 | 61 | 133 | 0.9 | 7.8 | 0.00 | 0.00 | 0.00 | 52 | 1015.3 |
| 20260507144057 | 61 | 133 | 2.6 | 7.8 | 0.00 | 0.00 | 0.00 | 51 | 1015.4 |
| 20260507143556 | 61 | 163 | 2.6 | 7.0 | 0.00 | 0.00 | 0.00 | 50 | 1015.5 |
| 20260507143105 | 61 | 151 | 0.9 | 6.1 | 0.00 | 0.00 | 0.00 | 45 | 1015.4 |
| 20260507142556 | 61 | 147 | 1.7 | 5.2 | 0.00 | 0.00 | 0.00 | 45 | 1015.2 |
| 20260507142056 | 61 | 142 | 0.9 | 3.5 | 0.00 | 0.00 | 0.00 | 44 | 1015.5 |
| 20260507141601 | 61 | 0 | 0.0 | 5.2 | 0.00 | 0.00 | 0.00 | 44 | 1015.5 |
| 20260507141056 | 61 | 142 | 0.9 | 5.2 | 0.00 | 0.00 | 0.00 | 43 | 1015.6 |
| 20260507140557 | 61 | 0 | 0.9 | 3.5 | 0.00 | 0.00 | 0.00 | 44 | 1015.5 |
| 20260507140057 | 61 | 0 | 0.0 | 4.3 | 0.00 | 0.00 | 0.00 | 43 | 1015.5 |
| 20260507135556 | 61 | 0 | 0.9 | 7.0 | 0.00 | 0.00 | 0.00 | 44 | 1015.5 |
| 20260507135056 | 61 | 133 | 0.9 | 7.0 | 0.00 | 0.00 | 0.00 | 45 | 1015.6 |
| 20260507134557 | 61 | 0 | 1.7 | 7.0 | 0.00 | 0.00 | 0.00 | 46 | 1015.6 |
| 20260507134057 | 60 | 132 | 0.0 | 4.3 | 0.00 | 0.00 | 0.00 | 46 | 1015.6 |
| 20260507133556 | 60 | 0 | 0.0 | 4.3 | 0.00 | 0.00 | 0.00 | 45 | 1015.6 |
| 20260507133101 | 60 | 0 | 0.9 | 4.3 | 0.00 | 0.00 | 0.00 | 45 | 1015.8 |
| 20260507132556 | 60 | 0 | 0.9 | 4.3 | 0.00 | 0.00 | 0.00 | 45 | 1015.7 |
| 20260507132058 | 61 | 0 | 0.9 | 4.3 | 0.00 | 0.00 | 0.00 | 43 | 1015.8 |
| 20260507131605 | 61 | 0 | 0.0 | 6.1 | 0.00 | 0.00 | 0.00 | 44 | 1015.7 |
| 20260507131058 | 61 | 128 | 1.7 | 7.8 | 0.00 | 0.00 | 0.00 | 44 | 1015.8 |
| 20260507130557 | 61 | 128 | 1.7 | 7.8 | 0.00 | 0.00 | 0.00 | 45 | 1015.7 |
| 20260507130059 | 62 | 138 | 2.6 | 8.7 | 0.00 | 0.00 | 0.00 | 45 | 1015.7 |
| 20260507125557 | 62 | 143 | 2.6 | 8.7 | 0.00 | 0.00 | 0.00 | 43 | 1015.5 |
| 20260507125056 | 62 | 174 | 0.0 | 5.2 | 0.00 | 0.00 | 0.00 | 42 | 1015.7 |
| 20260507124605 | 61 | 0 | 0.9 | 5.2 | 0.00 | 0.00 | 0.00 | 44 | 1015.7 |
| 20260507124056 | 61 | 0 | 0.9 | 4.3 | 0.00 | 0.00 | 0.00 | 43 | 1015.6 |
| 20260507123556 | 61 | 0 | 1.7 | 4.3 | 0.00 | 0.00 | 0.00 | 45 | 1015.8 |
| 20260507123058 | 60 | 32 | 0.9 | 2.6 | 0.00 | 0.00 | 0.00 | 44 | 1015.7 |
| 20260507122556 | 60 | 32 | 0.0 | 3.5 | 0.00 | 0.00 | 0.00 | 43 | 1015.8 |
| 20260507122056 | 60 | 32 | 0.9 | 3.5 | 0.00 | 0.00 | 0.00 | 44 | 1015.8 |
| 20260507121556 | 60 | 0 | 0.0 | 3.5 | 0.00 | 0.00 | 0.00 | 42 | 1015.8 |
| 20260507121056 | 61 | 40 | 0.0 | 4.3 | 0.00 | 0.00 | 0.00 | 43 | 1015.8 |
| 20260507120556 | 61 | 43 | 1.7 | 7.8 | 0.00 | 0.00 | 0.00 | 42 | 1015.9 |
| 20260507120059 | 61 | 45 | 0.9 | 7.8 | 0.00 | 0.00 | 0.00 | 42 | 1015.9 |
| 20260507115556 | 62 | 0 | 1.7 | 7.8 | 0.00 | 0.00 | 0.00 | 42 | 1015.9 |
| 20260507115059 | 62 | 43 | 2.6 | 6.1 | 0.00 | 0.00 | 0.00 | 41 | 1015.9 |
| 20260507114609 | 62 | 58 | 0.9 | 5.2 | 0.00 | 0.00 | 0.00 | 41 | 1015.9 |
| 20260507114056 | 63 | 0 | 1.7 | 6.1 | 0.00 | 0.00 | 0.00 | 41 | 1015.9 |
| 20260507113559 | 63 | 0 | 1.7 | 7.8 | 0.00 | 0.00 | 0.00 | 41 | 1015.8 |
| 20260507113129 | 63 | 53 | 3.5 | 7.8 | 0.00 | 0.00 | 0.00 | 42 | 1015.8 |
| 20260507112556 | 63 | 350 | 1.7 | 7.0 | 0.00 | 0.00 | 0.00 | 45 | 1015.8 |
| 20260507112057 | 62 | 79 | 2.6 | 7.0 | 0.00 | 0.00 | 0.00 | 44 | 1016.0 |
| 20260507111558 | 61 | 0 | 0.9 | 4.3 | 0.00 | 0.00 | 0.00 | 46 | 1016.0 |
| 20260507111056 | 61 | 145 | 0.0 | 5.2 | 0.00 | 0.00 | 0.00 | 45 | 1016.0 |
| 20260507110556 | 61 | 0 | 0.0 | 5.2 | 0.00 | 0.00 | 0.00 | 44 | 1016.1 |
| 20260507110054 | 61 | 170 | 0.9 | 5.2 | 0.00 | 0.00 | 0.00 | 43 | 1016.0 |
| 20260507105557 | 62 | 169 | 0.9 | 5.2 | 0.00 | 0.00 | 0.00 | 44 | 1016.1 |
| 20260507105057 | 62 | 0 | 1.7 | 7.0 | 0.00 | 0.00 | 0.00 | 43 | 1016.2 |
| 20260507104556 | 62 | 0 | 2.6 | 7.0 | 0.00 | 0.00 | 0.00 | 43 | 1016.3 |
| 20260507104056 | 62 | 199 | 3.5 | 7.0 | 0.00 | 0.00 | 0.00 | 45 | 1016.3 |
| 20260507103556 | 61 | 49 | 0.0 | 3.5 | 0.00 | 0.00 | 0.00 | 47 | 1016.2 |
| 20260507103058 | 60 | 0 | 0.0 | 1.7 | 0.00 | 0.00 | 0.00 | 49 | 1016.2 |
| 20260507102556 | 59 | 0 | 0.0 | 1.7 | 0.00 | 0.00 | 0.00 | 50 | 1016.2 |
| 20260507102056 | 59 | 0 | 0.0 | 1.7 | 0.00 | 0.00 | 0.00 | 48 | 1016.4 |
| 20260507101556 | 59 | 0 | 0.0 | 2.6 | 0.00 | 0.00 | 0.00 | 49 | 1016.4 |
| 20260507101055 | 59 | 0 | 0.0 | 2.6 | 0.00 | 0.00 | 0.00 | 48 | 1016.3 |
| 20260507100559 | 59 | 0 | 0.0 | 4.3 | 0.00 | 0.00 | 0.00 | 51 | 1016.3 |
| 20260507100115 | 59 | 47 | 0.9 | 4.3 | 0.00 | 0.00 | 0.00 | 51 | 1016.4 |
| 20260507095558 | 59 | 43 | 1.7 | 5.2 | 0.00 | 0.00 | 0.00 | 51 | 1016.4 |
| 20260507095058 | 59 | 43 | 0.0 | 5.2 | 0.00 | 0.00 | 0.00 | 52 | 1016.4 |
| 20260507094607 | 59 | 0 | 0.9 | 5.2 | 0.00 | 0.00 | 0.00 | 54 | 1016.4 |
| 20260507094057 | 59 | 82 | 0.0 | 2.6 | 0.00 | 0.00 | 0.00 | 56 | 1016.4 |
| 20260507093556 | 58 | 0 | 0.0 | 1.7 | 0.00 | 0.00 | 0.00 | 59 | 1016.3 |
| 20260507093056 | 58 | 0 | 0.0 | 1.7 | 0.00 | 0.00 | 0.00 | 59 | 1016.3 |
| 20260507092556 | 58 | 0 | 0.0 | 3.5 | 0.00 | 0.00 | 0.00 | 57 | 1016.3 |
| 20260507092056 | 58 | 0 | 0.0 | 3.5 | 0.00 | 0.00 | 0.00 | 57 | 1016.3 |
| 20260507091630 | 59 | 88 | 0.0 | 2.6 | 0.00 | 0.00 | 0.00 | 57 | 1016.4 |
| 20260507091059 | 59 | 88 | 0.0 | 3.5 | 0.00 | 0.00 | 0.00 | 58 | 1016.4 |
| 20260507090556 | 59 | 88 | 0.9 | 6.1 | 0.00 | 0.00 | 0.00 | 59 | 1016.4 |
| 20260507090053 | 59 | 0 | 0.9 | 6.1 | 0.00 | 0.00 | 0.00 | 63 | 1016.4 |
| 20260507085556 | 58 | 95 | 1.7 | 3.5 | 0.00 | 0.00 | 0.00 | 62 | 1016.4 |
| 20260507085056 | 57 | 113 | 0.9 | 5.2 | 0.00 | 0.00 | 0.00 | 68 | 1016.5 |
| 20260507084609 | 57 | 114 | 0.9 | 5.2 | 0.00 | 0.00 | 0.00 | 67 | 1016.5 |
| 20260507084055 | 56 | 116 | 0.0 | 4.3 | 0.00 | 0.00 | 0.00 | 70 | 1016.4 |
| 20260507083556 | 55 | 0 | 0.9 | 4.3 | 0.00 | 0.00 | 0.00 | 72 | 1016.4 |
| 20260507083058 | 55 | 0 | 0.9 | 4.3 | 0.00 | 0.00 | 0.00 | 75 | 1016.4 |
| 20260507082556 | 54 | 0 | 1.7 | 4.3 | 0.00 | 0.00 | 0.00 | 77 | 1016.5 |
| 20260507082056 | 53 | 0 | 0.9 | 6.1 | 0.00 | 0.00 | 0.00 | 79 | 1016.5 |
| 20260507081819 | 53 | 0 | 0.0 | 7.0 | 0.00 | 0.00 | 0.00 | 82 | 1016.5 |
| 20260507081056 | 52 | 116 | 1.7 | 7.0 | 0.00 | 0.00 | 0.00 | 86 | 1016.5 |
| 20260507080558 | 51 | 113 | 0.9 | 4.3 | 0.00 | 0.00 | 0.00 | 90 | 1016.6 |
| 20260507080053 | 50 | 74 | 0.9 | 4.3 | 0.00 | 0.00 | 0.00 | 93 | 1016.5 |
| 20260507075553 | 49 | 49 | 0.9 | 3.5 | 0.00 | 0.00 | 0.00 | 94 | 1016.3 |
| 20260507075056 | 48 | 0 | 0.0 | 2.6 | 0.00 | 0.00 | 0.00 | 95 | 1016.4 |
| 20260507074558 | 47 | 32 | 0.0 | 1.7 | 0.00 | 0.00 | 0.00 | 95 | 1016.4 |
| 20260507074058 | 47 | 0 | 0.0 | 2.6 | 0.00 | 0.00 | 0.00 | 95 | 1016.4 |
| 20260507073600 | 46 | 0 | 0.0 | 2.6 | 0.00 | 0.00 | 0.00 | 95 | 1016.4 |
| 20260507073101 | 45 | 0 | 0.0 | 1.7 | 0.00 | 0.00 | 0.00 | 96 | 1016.4 |
| 20260507072556 | 44 | 0 | 0.0 | 3.5 | 0.00 | 0.00 | 0.00 | 95 | 1016.4 |
| 20260507072056 | 43 | 0 | 0.9 | 3.5 | 0.00 | 0.00 | 0.00 | 95 | 1016.4 |
| 20260507071555 | 42 | 30 | 0.0 | 1.7 | 0.00 | 0.00 | 0.00 | 95 | 1016.3 |
| 20260507071056 | 42 | 0 | 0.0 | 0.9 | 0.00 | 0.00 | 0.00 | 95 | 1016.4 |
| 20260507070558 | 41 | 0 | 0.0 | 0.9 | 0.00 | 0.00 | 0.00 | 95 | 1016.4 |
| 20260507070105 | 41 | 0 | 0.0 | 0.9 | 0.00 | 0.00 | 0.00 | 94 | 1016.4 |
| 20260507065558 | 40 | 0 | 0.0 | 0.0 | 0.00 | 0.00 | 0.00 | 94 | 1016.3 |
| 20260507065055 | 40 | 0 | 0.0 | 0.0 | 0.00 | 0.00 | 0.00 | 94 | 1016.3 |
| 20260507064558 | 40 | 0 | 0.0 | 0.0 | 0.00 | 0.00 | 0.00 | 94 | 1016.4 |
| 20260507064057 | 40 | 0 | 0.0 | 0.0 | 0.00 | 0.00 | 0.00 | 94 | 1016.4 |
| 20260507063557 | 39 | 0 | 0.0 | 0.0 | 0.00 | 0.00 | 0.00 | 94 | 1016.4 |
| 20260507063057 | 39 | 0 | 0.0 | 0.9 | 0.00 | 0.00 | 0.00 | 94 | 1016.4 |
| 20260507062556 | 38 | 0 | 0.0 | 0.9 | 0.00 | 0.00 | 0.00 | 94 | 1016.4 |
| 20260507062056 | 38 | 0 | 0.0 | 0.9 | 0.00 | 0.00 | 0.00 | 93 | 1016.3 |
| 20260507061559 | 38 | 0 | 0.0 | 0.9 | 0.00 | 0.00 | 0.00 | 93 | 1016.4 |
| 20260507061057 | 38 | 0 | 0.0 | 0.9 | 0.00 | 0.00 | 0.00 | 93 | 1016.3 |
| 20260507060559 | 38 | 0 | 0.0 | 0.9 | 0.00 | 0.00 | 0.00 | 93 | 1016.3 |
| 20260507060104 | 37 | 0 | 0.0 | 0.9 | 0.00 | 0.00 | 0.00 | 93 | 1016.4 |
| 20260507055558 | 37 | 0 | 0.0 | 1.7 | 0.00 | 0.00 | 0.00 | 92 | 1016.2 |
| 20260507055059 | 37 | 0 | 0.0 | 1.7 | 0.00 | 0.00 | 0.00 | 92 | 1016.2 |
| 20260507054558 | 37 | 0 | 0.0 | 1.7 | 0.00 | 0.00 | 0.00 | 92 | 1016.2 |
| 20260507054101 | 37 | 0 | 0.0 | 1.7 | 0.00 | 0.00 | 0.00 | 92 | 1016.0 |
| 20260507053559 | 36 | 0 | 0.0 | 1.7 | 0.00 | 0.00 | 0.00 | 91 | 1016.0 |
| 20260507053058 | 36 | 37 | 0.0 | 1.7 | 0.00 | 0.00 | 0.00 | 91 | 1016.0 |
| 20260507052559 | 36 | 0 | 0.0 | 1.7 | 0.00 | 0.00 | 0.00 | 91 | 1015.9 |
| 20260507052059 | 36 | 0 | 0.0 | 0.0 | 0.00 | 0.00 | 0.00 | 90 | 1015.8 |
| 20260507051559 | 36 | 0 | 0.0 | 0.0 | 0.00 | 0.00 | 0.00 | 90 | 1015.9 |
| 20260507051057 | 36 | 0 | 0.0 | 0.0 | 0.00 | 0.00 | 0.00 | 90 | 1015.8 |
| 20260507050601 | 36 | 0 | 0.0 | 0.0 | 0.00 | 0.00 | 0.00 | 90 | 1015.9 |
| 20260507050059 | 36 | 0 | 0.0 | 0.0 | 0.00 | 0.00 | 0.00 | 89 | 1015.9 |
| 20260507045601 | 36 | 0 | 0.0 | 0.0 | 0.00 | 0.00 | 0.00 | 89 | 1015.8 |
| 20260507045059 | 36 | 0 | 0.0 | 0.0 | 0.00 | 0.00 | 0.00 | 89 | 1015.9 |
| 20260507044610 | 36 | 0 | 0.0 | 0.0 | 0.00 | 0.00 | 0.00 | 89 | 1015.7 |
| 20260507044058 | 36 | 0 | 0.0 | 0.0 | 0.00 | 0.00 | 0.00 | 89 | 1015.8 |
| 20260507043558 | 36 | 0 | 0.0 | 0.0 | 0.00 | 0.00 | 0.00 | 89 | 1015.8 |
| 20260507043118 | 36 | 0 | 0.0 | 0.0 | 0.00 | 0.00 | 0.00 | 89 | 1015.8 |
| 20260507042559 | 36 | 0 | 0.0 | 0.0 | 0.00 | 0.00 | 0.00 | 89 | 1015.7 |
| 20260507042058 | 37 | 0 | 0.0 | 0.0 | 0.00 | 0.00 | 0.00 | 89 | 1015.7 |
| 20260507041604 | 37 | 0 | 0.0 | 0.0 | 0.00 | 0.00 | 0.00 | 89 | 1015.8 |
| 20260507041059 | 37 | 0 | 0.0 | 0.0 | 0.00 | 0.00 | 0.00 | 89 | 1015.8 |
| 20260507040559 | 37 | 0 | 0.0 | 0.0 | 0.00 | 0.00 | 0.00 | 89 | 1015.8 |
| 20260507040059 | 37 | 0 | 0.0 | 0.0 | 0.00 | 0.00 | 0.00 | 89 | 1016.0 |
| 20260507035558 | 37 | 0 | 0.0 | 0.0 | 0.00 | 0.00 | 0.00 | 89 | 1015.9 |
| 20260507035059 | 37 | 0 | 0.0 | 0.0 | 0.00 | 0.00 | 0.00 | 89 | 1015.8 |
| 20260507034559 | 37 | 0 | 0.0 | 0.0 | 0.00 | 0.00 | 0.00 | 89 | 1015.7 |
| 20260507034058 | 38 | 0 | 0.0 | 0.0 | 0.00 | 0.00 | 0.00 | 89 | 1015.7 |
| 20260507033554 | 38 | 0 | 0.0 | 0.0 | 0.00 | 0.00 | 0.00 | 89 | 1015.7 |
| 20260507033056 | 38 | 0 | 0.0 | 0.0 | 0.00 | 0.00 | 0.00 | 89 | 1015.8 |
| 20260507032559 | 38 | 0 | 0.0 | 0.0 | 0.00 | 0.00 | 0.00 | 89 | 1015.8 |
| 20260507032057 | 38 | 0 | 0.0 | 0.0 | 0.00 | 0.00 | 0.00 | 89 | 1015.7 |
| 20260507031557 | 38 | 0 | 0.0 | 0.0 | 0.00 | 0.00 | 0.00 | 89 | 1015.7 |
| 20260507031058 | 38 | 0 | 0.0 | 0.0 | 0.00 | 0.00 | 0.00 | 89 | 1015.7 |
| 20260507030557 | 38 | 0 | 0.0 | 0.0 | 0.00 | 0.00 | 0.00 | 89 | 1015.7 |
| 20260507030057 | 38 | 0 | 0.0 | 0.0 | 0.00 | 0.00 | 0.00 | 89 | 1015.7 |
| 20260507025553 | 38 | 0 | 0.0 | 0.9 | 0.00 | 0.00 | 0.00 | 88 | 1015.7 |
| 20260507025059 | 39 | 0 | 0.0 | 0.9 | 0.00 | 0.00 | 0.00 | 88 | 1015.7 |
| 20260507024557 | 39 | 0 | 0.0 | 1.7 | 0.00 | 0.00 | 0.00 | 88 | 1015.7 |
| 20260507024055 | 39 | 0 | 0.0 | 1.7 | 0.00 | 0.00 | 0.00 | 88 | 1015.7 |
| 20260507023554 | 39 | 0 | 0.0 | 0.9 | 0.00 | 0.00 | 0.00 | 88 | 1015.6 |
| 20260507023108 | 39 | 0 | 0.0 | 0.9 | 0.00 | 0.00 | 0.00 | 87 | 1015.7 |
| 20260507022554 | 39 | 0 | 0.0 | 0.9 | 0.00 | 0.00 | 0.00 | 87 | 1015.7 |
| 20260507022056 | 39 | 0 | 0.0 | 0.9 | 0.00 | 0.00 | 0.00 | 87 | 1015.7 |
| 20260507021555 | 39 | 0 | 0.0 | 0.9 | 0.00 | 0.00 | 0.00 | 87 | 1015.7 |
| 20260507021054 | 39 | 0 | 0.0 | 0.9 | 0.00 | 0.00 | 0.00 | 86 | 1015.7 |
| 20260507020557 | 40 | 0 | 0.0 | 0.0 | 0.00 | 0.00 | 0.00 | 86 | 1015.6 |
| 20260507020103 | 40 | 0 | 0.0 | 0.0 | 0.00 | 0.00 | 0.00 | 86 | 1015.6 |
| 20260507015557 | 40 | 0 | 0.0 | 0.0 | 0.00 | 0.00 | 0.00 | 86 | 1015.6 |
| 20260507015057 | 40 | 0 | 0.0 | 0.0 | 0.00 | 0.00 | 0.00 | 86 | 1015.5 |